Theta_e
328 314 316 319 313 313 309 300 295 291 294 288 283 290 294 296 297 297 298 298 300 304 305 311 309 309 305 304 305 310 314 308 304 301 296 311 331 336 337 338 337 335 336 335 332 333 335 343 347 348 347 347 347 347 348 348 348 348 348 347 347 347 345 344 344 344 344 342 341 341 340 338 339 339 339 340 341 340 340 339 339 339 340 340 340 340 342 342 343 344 344 345 345 343 343 344 344
321 311 315 316 313 307 303 297 289 285 285 283 285 288 289 293 297 295 297 297 299 308 310 315 315 315 315 316 316 315 314 319 312 315 324 331 336 336 338 339 337 336 335 333 332 332 334 337 345 346 346 346 347 347 348 348 348 347 347 347 346 346 344 343 343 343 342 341 341 341 340 341 342 342 341 340 340 341 340 340 340 340 339 339 339 340 340 341 341 343 343 344 344 343 343 342 343
319 314 316 310 305 303 299 297 293 282 285 285 282 287 291 294 295 296 295 297 305 311 310 311 311 309 310 310 307 307 306 324 324 325 328 335 330 333 339 340 339 337 334 331 332 333 333 337 343 347 346 346 346 347 347 347 347 347 346 346 345 345 344 342 342 342 342 343 340 338 338 338 338 338 339 338 339 340 339 339 340 340 340 340 339 339 340 340 341 342 342 343 344 343 342 342 343
312 312 312 306 305 301 295 291 288 284 289 282 281 286 290 293 295 296 295 298 310 308 305 309 309 311 310 308 308 316 317 320 326 328 326 330 332 337 339 339 338 334 332 332 332 332 333 339 345 347 346 346 346 347 347 347 347 346 346 345 345 344 344 342 340 343 342 340 339 338 336 341 342 341 340 340 339 340 339 339 339 339 340 338 339 338 339 339 340 342 342 343 342 342 342 342 341
312 316 305 302 301 301 294 291 287 286 288 284 289 287 290 293 296 296 302 302 306 299 300 306 308 312 313 312 310 307 311 322 327 329 329 333 338 339 339 338 336 333 332 332 333 331 334 341 343 346 346 346 347 347 346 346 346 346 345 344 344 343 343 342 341 341 341 338 337 340 340 340 340 340 338 337 337 336 337 337 337 337 338 337 338 338 337 338 339 341 342 342 343 342 342 341 342
310 307 308 306 303 301 296 292 290 288 289 287 288 290 291 294 299 299 303 300 298 297 300 305 306 307 311 313 313 312 320 316 326 328 330 332 337 339 338 335 334 333 332 331 331 331 332 340 343 346 346 346 346 347 346 346 345 345 344 343 343 342 342 341 339 339 339 338 339 339 338 339 338 339 337 337 337 338 338 337 337 337 337 338 338 338 338 338 338 340 341 341 342 343 341 341 340
312 304 301 301 298 297 292 287 285 286 290 289 289 292 295 296 300 299 298 301 300 307 302 310 309 310 308 309 315 320 320 323 325 326 332 335 338 339 337 334 334 332 332 331 331 331 332 339 345 346 347 346 346 346 346 346 344 344 343 343 342 341 340 340 339 338 337 337 339 339 339 339 341 341 341 340 339 339 339 339 339 339 339 339 338 338 337 338 338 339 340 341 341 342 340 340 339
309 306 300 293 290 292 286 286 286 286 291 289 289 295 296 300 297 297 297 299 300 302 309 308 303 305 306 312 308 316 320 322 325 330 336 337 338 337 336 334 333 333 332 331 331 331 341 340 345 345 346 346 346 346 346 345 344 344 343 342 341 341 339 337 338 338 338 338 337 338 339 340 340 340 339 339 340 340 339 339 338 338 338 338 338 338 339 339 339 339 339 341 341 341 339 339 339
304 303 300 296 291 288 284 288 287 287 289 288 291 295 305 299 297 297 296 295 299 301 307 306 303 301 303 309 308 314 318 325 331 334 336 338 337 336 335 333 334 333 332 332 330 331 333 338 343 344 344 346 345 345 345 345 344 344 343 342 341 340 339 338 338 338 338 337 340 341 341 342 341 340 338 338 338 337 338 338 337 337 337 336 337 337 337 337 337 338 339 340 341 340 339 338 338
302 301 294 293 290 291 284 283 289 290 289 291 294 299 298 295 295 295 295 298 302 304 304 302 302 300 305 308 307 315 318 328 333 334 336 337 337 336 333 333 334 334 333 332 331 332 332 341 337 341 344 346 346 345 345 345 343 342 342 341 339 338 337 338 338 336 335 338 338 340 340 341 340 339 337 335 335 336 337 337 338 337 335 335 335 336 336 336 336 337 339 340 340 338 338 338 337
298 296 296 294 285 286 287 283 284 287 291 290 293 294 297 295 294 293 295 297 298 301 303 307 307 306 308 310 310 314 318 332 333 331 335 337 337 334 333 335 335 335 334 334 330 331 331 333 338 337 340 342 343 344 344 344 343 342 341 339 338 337 336 336 335 334 334 335 338 339 340 341 342 341 339 339 339 338 336 336 334 333 336 337 337 337 337 337 337 337 338 339 338 337 337 337 337
297 293 292 285 286 285 284 286 287 287 288 290 298 296 295 296 294 296 295 300 300 302 303 306 306 308 307 308 309 314 325 330 332 334 336 337 336 334 334 335 335 336 337 334 331 331 329 330 332 337 333 335 340 342 342 342 343 341 341 338 337 337 337 337 337 342 342 335 337 340 340 340 339 339 340 340 338 336 336 335 334 334 336 336 336 336 335 336 337 337 337 337 337 336 336 336 336
297 293 290 288 288 288 287 287 288 293 287 289 296 297 295 295 295 295 295 298 299 301 301 304 310 307 304 309 310 315 324 329 331 335 336 337 336 334 334 335 336 337 336 333 331 330 328 329 330 330 331 331 332 335 337 338 340 341 341 341 341 339 338 337 338 340 341 341 340 341 341 340 340 339 339 338 338 337 337 336 336 336 336 336 336 336 336 336 336 336 336 336 336 336 335 336 335
296 294 293 292 287 286 286 287 285 291 289 291 291 293 295 295 294 295 298 298 299 299 302 306 312 310 310 312 313 319 325 329 331 334 336 336 336 334 334 335 335 335 336 334 333 332 329 328 328 328 330 331 331 331 332 336 338 339 339 339 339 339 340 339 339 339 339 339 339 338 338 339 340 341 340 339 339 337 336 335 335 335 335 335 335 335 335 336 335 335 336 336 336 336 335 335 335
303 295 289 288 286 287 286 289 287 288 290 290 295 293 294 297 294 294 300 297 300 298 310 312 311 304 301 306 304 318 325 328 330 334 335 336 335 334 334 334 333 335 336 335 336 334 331 328 327 326 327 328 327 327 327 331 333 335 336 336 338 338 339 338 336 335 336 336 334 333 332 332 332 334 337 337 336 335 334 335 335 334 335 335 335 335 334 335 334 335 335 335 335 334 334 333 332
298 294 291 292 289 287 289 287 286 288 291 290 294 292 296 294 294 297 296 298 299 306 309 310 308 303 304 303 305 320 325 326 331 334 334 334 333 333 332 331 331 333 334 334 334 335 333 330 326 325 326 326 325 325 325 325 329 330 332 334 335 335 335 334 332 330 329 327 328 328 327 326 325 325 325 327 331 332 331 328 335 336 335 335 334 334 334 334 334 334 335 335 335 332 330 328 327
300 296 293 286 290 288 288 288 288 289 288 289 290 293 297 294 294 296 299 302 305 306 308 309 308 310 309 307 310 319 324 326 329 332 332 332 331 330 330 329 329 330 332 332 332 334 333 332 328 326 324 324 326 327 327 328 328 328 329 329 330 330 330 330 328 323 322 323 323 323 322 320 319 320 320 321 323 322 324 326 333 335 334 334 334 334 334 334 334 334 334 334 333 329 324 320 319
300 291 287 289 288 288 289 290 290 290 292 292 291 292 296 292 294 298 305 306 303 306 307 307 310 309 310 311 314 323 323 326 330 330 330 329 330 328 328 328 328 326 328 329 330 332 333 332 330 328 327 326 327 327 327 328 328 328 327 325 325 325 324 323 320 318 324 315 320 318 318 319 316 315 319 325 319 321 321 323 327 332 334 333 334 333 334 334 333 333 333 333 330 326 320 313 313
294 290 291 292 290 292 294 291 292 292 293 292 293 291 294 295 295 297 299 298 303 304 305 305 309 310 313 314 320 321 323 326 329 330 329 328 328 327 327 328 327 327 327 328 329 330 331 332 331 330 329 328 328 327 327 326 327 328 326 323 323 323 324 318 317 317 315 315 313 314 316 316 316 317 317 319 317 315 317 321 325 329 332 330 332 332 332 332 333 331 329 327 324 319 314 313 313
297 295 292 290 295 295 293 290 293 292 293 292 292 292 291 294 296 296 298 296 300 303 303 304 305 307 309 314 319 320 323 325 328 329 328 328 328 328 328 328 328 327 327 328 329 331 332 331 331 331 329 328 328 328 327 327 326 326 324 320 322 320 318 317 316 314 313 313 313 313 316 317 317 317 321 323 319 316 316 318 320 321 322 320 320 320 319 321 322 322 320 319 313 312 312 313 312
297 295 291 294 295 295 295 292 292 291 292 293 292 291 292 293 295 297 295 300 298 301 302 307 307 309 311 316 318 319 321 323 326 328 327 328 328 329 329 329 329 329 329 329 330 329 330 331 331 331 330 329 328 328 327 327 326 324 320 320 320 319 318 317 317 315 314 313 312 313 313 315 316 316 317 316 314 314 315 315 315 315 314 317 318 318 314 314 312 312 310 311 310 308 310 310 311
297 294 296 296 292 295 295 291 289 291 290 292 289 293 293 292 294 295 300 296 296 301 305 305 307 313 314 316 318 319 321 322 325 326 326 327 327 327 329 330 332 331 330 328 328 329 329 330 331 331 330 329 329 328 327 328 327 325 321 319 320 319 319 318 317 316 315 314 313 314 314 315 316 316 316 314 312 312 314 314 313 313 313 315 317 317 314 314 313 312 311 312 310 308 308 308 308
291 291 293 293 292 294 293 291 291 291 292 292 290 294 292 295 293 293 299 298 296 296 297 303 308 315 318 319 319 319 321 322 324 324 326 326 327 327 329 330 330 330 330 328 330 330 331 331 331 331 329 329 329 329 328 328 327 327 325 322 321 320 316 318 317 316 317 316 314 314 316 312 313 316 316 314 314 312 314 311 312 311 312 314 318 316 316 314 313 314 313 311 308 309 309 308 307
293 291 293 296 294 295 293 292 290 289 292 292 292 292 293 291 293 292 297 298 293 292 293 300 312 316 319 318 318 320 321 322 323 325 326 327 327 328 329 330 331 332 331 330 330 331 330 330 331 330 329 329 329 329 328 327 328 327 327 324 322 318 318 318 319 319 318 318 316 316 315 315 314 315 315 315 314 313 314 312 310 312 312 312 314 314 314 312 312 312 310 309 310 310 308 311 311
293 292 294 294 293 293 291 288 288 288 290 290 291 293 293 292 292 292 295 299 295 297 309 312 315 316 317 318 318 319 320 321 322 323 325 327 328 329 330 331 331 332 330 331 331 331 331 331 331 329 329 329 329 329 327 327 327 327 326 325 324 321 319 319 318 317 318 318 318 315 314 315 313 312 313 314 311 315 313 311 311 312 310 310 310 312 312 311 310 309 309 310 310 311 311 313 312
294 295 294 293 293 294 291 290 289 289 291 290 293 291 290 290 292 292 295 295 294 305 309 313 314 315 316 317 318 318 319 320 321 321 322 325 327 327 328 330 331 330 331 332 332 332 332 332 330 329 327 328 330 329 327 326 326 326 325 325 326 323 321 319 316 317 318 318 318 316 316 316 316 316 315 311 312 313 311 310 312 311 311 310 312 313 310 310 311 309 309 310 309 311 313 315 312
297 296 294 293 293 292 292 292 290 289 292 289 293 290 291 290 291 292 291 291 304 309 309 309 314 314 316 317 317 318 318 319 320 322 320 321 324 326 327 328 329 330 331 331 332 332 332 331 330 329 327 326 329 328 327 325 325 325 325 324 324 323 321 319 318 318 317 317 319 316 316 315 316 314 314 311 312 312 310 311 311 310 311 312 311 314 310 310 310 310 311 310 311 311 315 315 313
297 295 294 293 292 290 290 290 289 291 294 289 291 290 289 290 290 290 291 297 304 308 309 311 311 313 315 316 316 317 318 318 319 319 320 320 323 325 326 327 328 329 329 330 332 332 331 331 330 329 328 326 328 328 326 323 323 323 322 321 321 321 318 318 317 318 317 318 316 316 315 315 313 313 313 311 311 311 311 311 310 310 313 311 310 311 311 309 309 309 308 309 310 312 314 314 314
295 294 292 292 292 293 292 291 291 291 293 290 288 292 290 290 290 291 287 298 304 308 310 311 310 312 313 314 315 316 317 317 316 318 321 322 323 324 325 327 328 327 329 330 331 331 330 331 331 329 328 326 328 329 328 325 323 323 322 322 321 321 320 318 318 318 319 318 317 317 316 315 315 315 313 313 311 311 311 310 309 311 312 311 310 311 310 309 308 308 311 307 309 312 314 315 315
295 293 290 290 289 290 292 291 289 291 293 289 291 285 286 291 294 290 290 303 303 306 309 312 312 310 312 313 315 315 314 314 316 318 320 321 321 322 322 323 326 327 327 328 329 329 329 329 331 331 328 327 327 328 328 325 323 323 323 323 321 321 319 319 319 319 318 317 318 317 316 316 315 314 314 311 312 312 311 312 311 311 310 310 310 309 311 312 314 313 314 312 314 313 311 312 310
291 291 290 286 285 285 289 290 291 292 292 290 292 287 287 289 292 290 293 303 305 304 307 311 310 308 310 312 314 315 315 316 318 318 318 318 319 320 321 321 322 324 323 322 324 327 327 328 329 331 328 328 326 326 325 325 323 323 323 322 322 322 321 321 320 320 318 319 318 317 317 316 316 317 315 315 314 314 314 315 315 317 315 313 314 314 316 315 314 315 315 315 315 313 310 311 309
290 289 286 284 285 285 288 290 290 293 291 290 292 287 290 290 289 287 289 302 303 302 306 308 309 309 309 311 313 314 315 315 315 315 317 318 318 319 320 321 321 321 322 323 324 324 325 326 327 330 327 327 326 327 326 325 325 324 323 321 323 321 321 321 321 321 320 318 319 319 318 318 318 319 319 319 318 318 318 318 318 317 316 315 316 315 315 316 316 315 314 315 313 312 310 312 308
288 287 283 283 282 286 288 291 287 290 290 292 290 287 284 289 288 285 286 301 302 302 303 306 307 308 309 311 312 313 313 313 313 315 316 317 319 319 320 320 320 321 322 322 323 322 324 325 325 328 327 327 327 326 325 324 324 323 323 323 323 322 322 322 321 320 320 320 321 322 321 321 320 321 321 321 322 321 321 321 320 319 318 318 318 317 316 316 314 313 312 313 313 312 310 309 311
289 284 282 283 285 286 286 286 289 289 290 289 290 288 286 288 286 284 288 296 299 300 301 304 307 309 310 311 312 312 313 313 314 316 317 318 320 319 320 319 320 320 321 321 322 323 324 324 325 327 328 328 328 327 325 325 324 323 322 322 320 322 321 321 321 320 322 323 323 323 322 322 322 323 323 323 323 324 323 320 321 321 320 319 317 315 316 312 311 311 311 311 311 309 308 311 313
289 285 282 283 283 285 286 287 289 290 289 289 288 287 290 292 291 286 287 289 297 300 300 302 305 307 308 309 310 311 312 312 314 316 318 318 318 319 320 319 319 319 321 320 321 322 322 323 323 324 326 326 327 326 325 325 324 323 322 322 322 323 322 321 321 322 325 326 324 324 323 323 323 324 325 324 324 322 320 320 321 322 320 317 314 312 314 312 310 310 310 311 308 307 311 313 314
285 284 284 284 285 286 285 287 287 290 288 288 286 289 291 292 293 291 289 288 293 297 295 293 298 301 304 306 307 308 309 311 315 314 313 315 318 319 320 319 319 319 320 320 319 320 321 321 322 324 325 327 326 326 325 324 323 322 322 320 321 323 325 323 323 325 325 326 326 326 325 325 323 322 322 322 321 320 321 323 323 321 318 317 316 317 319 315 311 310 309 307 309 309 310 312 314
290 288 286 285 285 287 288 287 289 289 290 288 288 289 290 291 292 290 287 287 288 290 293 295 293 296 299 301 303 306 306 309 312 311 310 312 315 317 318 319 319 318 319 319 319 319 320 321 320 322 324 324 325 325 324 324 323 322 321 322 322 324 325 325 325 326 327 327 327 326 325 326 325 324 323 323 323 322 323 322 320 317 314 317 316 317 318 314 310 310 310 310 312 314 317 316 314
290 288 286 286 286 285 288 289 289 288 289 287 287 287 288 289 291 288 286 286 289 290 292 293 293 291 294 298 300 301 304 304 301 303 306 308 312 313 316 318 316 317 317 318 319 320 320 320 321 322 323 324 325 326 325 325 325 325 325 324 321 323 324 324 325 326 327 327 326 326 326 325 324 323 321 322 320 322 323 320 320 320 316 314 314 314 313 311 312 312 313 316 315 316 314 313 316
289 287 286 285 286 287 289 288 288 287 289 287 285 287 289 291 291 287 286 289 289 291 292 294 294 291 291 292 296 298 298 299 298 302 303 305 307 311 314 317 318 320 320 318 320 320 319 320 321 321 323 324 325 325 325 325 324 321 324 319 324 317 319 327 327 327 327 328 328 327 325 325 325 325 325 323 324 322 322 323 321 317 315 314 315 317 315 316 316 316 316 316 316 314 312 311 311
289 286 284 283 286 287 285 289 289 288 287 286 284 285 289 290 287 287 288 289 289 289 290 292 292 293 292 292 292 295 296 298 298 299 301 304 305 309 311 315 317 318 318 318 318 319 320 320 321 321 322 323 324 324 322 325 324 321 320 318 321 322 320 317 323 322 324 325 325 325 326 324 324 325 325 324 321 323 322 319 318 317 316 317 320 319 319 318 317 316 316 314 314 313 313 312 308
288 287 286 284 286 287 287 287 286 287 286 284 285 286 287 288 289 289 288 287 287 288 288 288 289 291 292 291 290 291 293 295 297 298 298 300 302 306 310 313 315 316 318 318 318 319 321 320 321 321 322 322 323 321 322 322 320 318 317 316 317 318 318 319 320 320 323 323 322 322 324 323 324 325 325 323 319 321 322 323 323 323 322 321 320 319 318 318 317 316 316 315 314 313 312 312 311
287 288 287 287 287 287 286 286 288 287 286 288 287 281 284 283 284 288 291 287 287 287 288 289 291 291 289 290 292 293 293 293 295 297 298 299 302 305 306 309 312 315 317 318 319 320 320 320 320 320 321 321 323 322 322 321 322 323 321 322 320 319 321 320 322 321 318 320 324 322 322 322 324 323 322 324 325 322 323 323 322 321 320 319 319 319 318 317 316 315 315 315 314 314 313 310 310
285 287 289 289 288 288 288 287 288 283 282 285 284 284 277 281 284 286 286 286 288 287 286 290 290 290 289 292 293 294 293 293 292 293 294 296 298 301 304 308 311 313 316 317 317 318 319 319 319 320 321 321 321 320 321 320 321 322 323 324 324 323 322 319 320 319 323 318 317 320 321 321 322 322 321 323 323 322 321 321 320 320 320 320 316 318 317 315 313 312 310 311 311 310 308 306 308
284 288 287 289 288 287 287 288 287 283 285 286 285 283 280 283 288 284 279 282 285 285 287 288 289 290 291 292 293 293 294 293 293 293 294 296 298 300 303 307 309 313 315 313 315 316 317 318 318 319 320 319 320 320 320 322 323 321 321 321 320 321 322 320 316 317 315 314 317 317 318 317 318 319 320 319 319 319 318 317 317 317 316 315 314 315 313 310 310 310 310 310 309 307 305 306 307
287 288 290 289 288 288 288 288 285 284 284 283 284 283 282 279 282 281 281 284 284 286 287 289 291 291 291 292 293 293 293 293 293 293 293 294 296 297 301 304 307 309 309 312 313 314 315 317 316 317 318 318 319 319 320 321 321 322 322 321 319 317 318 315 311 309 312 314 317 316 317 316 314 313 314 313 312 313 311 315 315 314 314 314 311 312 311 309 307 309 309 309 308 309 309 309 309
290 290 291 289 288 287 288 285 286 284 282 281 282 282 280 282 279 283 279 282 284 283 285 289 290 292 293 293 293 293 291 290 291 292 293 293 294 296 298 299 301 306 306 306 306 308 311 313 314 315 317 317 318 318 319 320 321 319 321 320 320 316 313 310 314 313 314 315 316 315 314 312 311 310 310 310 310 310 310 310 309 309 307 307 306 306 305 305 305 304 302 301 301 304 306 307 307
292 292 291 288 286 285 283 282 282 283 278 282 283 281 283 280 284 286 286 286 287 288 288 287 287 288 289 290 291 292 291 290 291 292 292 292 291 292 292 299 300 298 296 297 301 305 308 311 313 314 316 316 315 317 318 319 320 320 321 320 319 316 314 314 314 314 314 315 314 312 311 310 309 308 307 306 307 307 307 306 306 303 301 300 302 304 303 303 301 300 299 300 301 301 301 301 300
293 288 286 288 285 284 283 281 284 278 279 281 277 278 280 279 280 283 285 282 283 292 291 292 292 291 288 287 288 289 289 291 292 293 294 293 293 292 292 295 297 297 295 296 298 300 304 309 311 313 311 312 313 316 317 318 319 319 320 319 319 317 316 316 317 315 314 315 314 312 308 307 306 306 306 305 304 304 304 303 300 299 298 298 300 300 301 301 301 301 300 301 300 300 300 299 299
290 289 288 283 278 280 276 278 275 278 278 278 277 278 280 280 282 282 281 284 286 284 289 292 291 288 286 286 286 288 289 290 292 293 294 294 296 296 295 296 294 296 299 297 297 299 301 304 308 312 312 311 313 314 316 317 318 318 319 318 318 317 317 318 318 316 315 315 313 310 308 307 305 305 304 303 302 301 301 300 297 297 297 296 296 298 297 298 298 297 297 297 298 297 297 297 296
288 286 284 281 276 274 275 274 270 271 275 277 279 279 278 280 280 289 290 290 288 287 286 286 286 287 288 288 287 287 289 291 293 294 295 295 296 297 297 297 297 296 296 296 296 297 298 302 304 310 313 311 312 314 315 316 317 318 318 318 319 317 317 318 318 317 316 315 313 310 309 307 306 306 303 302 299 298 297 295 295 295 294 294 295 295 296 296 296 296 295 295 294 295 295 294 293
288 290 288 283 280 274 272 271 276 277 277 275 276 276 275 279 284 282 289 292 286 282 284 284 284 285 286 287 289 289 290 291 292 293 295 295 295 295 296 296 296 293 296 296 296 299 300 301 303 307 310 307 310 313 315 315 315 316 317 318 319 318 318 318 318 317 315 313 311 311 309 306 305 302 302 298 297 296 294 293 293 293 293 293 293 294 294 294 293 293 292 291 292 292 292 291 290
288 288 289 285 284 283 279 274 274 269 271 273 273 277 278 281 282 285 284 284 285 285 285 286 289 289 289 290 292 292 291 293 292 293 294 293 292 291 293 293 293 295 298 299 298 299 301 304 305 308 310 308 309 311 314 315 314 315 316 317 318 316 316 316 313 311 312 313 310 309 305 304 302 299 297 296 294 293 292 292 291 291 291 291 291 292 291 291 290 290 289 289 289 290 289 288 288
287 287 283 286 286 285 278 277 277 276 273 273 273 277 280 280 286 286 279 285 288 286 286 287 290 290 289 291 292 291 292 292 292 293 294 293 290 290 292 293 293 295 298 299 300 300 303 305 306 308 309 308 308 310 313 314 313 313 315 316 315 314 314 313 312 310 308 306 306 305 303 300 298 298 295 293 291 290 291 291 290 289 290 289 290 289 289 289 288 288 287 287 286 286 286 286 286
287 284 287 287 287 288 283 278 272 272 273 275 272 278 278 279 281 283 284 286 288 286 288 287 287 287 290 293 293 291 292 293 292 292 292 292 292 292 291 292 296 298 300 301 301 302 304 306 307 308 307 307 308 309 311 311 311 311 312 313 312 313 313 312 310 307 304 303 301 299 298 297 296 294 293 291 290 289 289 288 288 287 287 287 287 287 287 287 287 286 285 284 283 283 284 283 283
290 288 290 288 281 281 282 279 273 270 270 269 270 275 275 276 282 280 285 285 288 289 289 285 287 288 291 293 291 290 289 290 292 292 292 291 291 292 292 293 294 297 300 302 302 303 304 306 307 308 308 308 308 309 308 309 310 310 310 311 310 310 309 307 305 304 303 301 299 298 298 295 293 292 290 289 288 287 286 285 285 285 285 285 285 285 285 285 285 285 284 283 282 283 284 283 282
290 290 287 287 286 285 281 280 276 275 270 269 272 274 276 279 279 279 283 282 286 288 287 288 289 289 290 292 292 291 291 292 292 292 291 291 290 291 291 292 293 296 300 302 302 303 304 306 306 306 307 307 306 306 306 308 307 307 306 306 306 307 305 303 302 302 301 300 297 296 294 293 291 289 289 288 287 286 285 285 284 285 284 284 284 283 283 284 284 283 283 284 283 284 284 283 282
283 285 284 284 285 286 285 282 281 279 270 267 269 269 273 278 281 284 287 286 287 289 290 289 288 288 288 290 291 291 291 291 291 292 292 291 291 289 288 289 290 292 297 301 302 303 304 303 305 305 305 304 305 305 305 305 305 304 304 304 302 301 300 300 300 300 298 296 294 293 293 290 287 287 286 286 286 286 285 285 284 284 284 284 284 283 282 283 283 283 283 283 283 283 283 282 282
287 287 285 286 283 282 280 279 278 270 274 270 266 274 274 281 282 288 289 290 289 287 287 288 287 287 288 289 290 291 292 292 291 290 290 290 289 288 288 287 287 289 293 298 301 302 303 302 303 303 304 304 304 303 304 302 303 303 303 301 299 299 298 298 297 296 294 293 291 290 287 287 287 285 286 286 286 284 284 284 284 284 283 283 283 283 282 283 283 283 283 282 282 283 283 282 282
Wind_Speed
3 2 0 1 3 3 1 6 1 3 2 0 1 1 1 0 1 1 1 2 0 0 1 1 2 4 2 3 5 5 1 5 3 7 3 1 1 6 6 7 5 3 3 0 1 2 4 5 6 8 10 8 9 9 9 10 10 11 11 12 12 12 12 11 12 13 14 13 13 12 13 14 13 14 14 14 14 14 14 14 14 14 14 14 14 15 16 15 16 17 17 17 16 14 15 16 16
1 1 1 1 1 1 1 1 4 3 6 3 2 1 2 1 1 3 4 1 1 1 1 6 7 7 8 8 8 4 3 4 3 1 1 2 8 6 8 8 6 7 3 1 2 3 4 4 6 8 9 8 9 9 10 11 11 10 11 12 12 13 11 11 12 12 12 13 13 13 13 13 14 14 14 14 14 14 14 14 13 14 14 14 14 14 15 15 15 16 17 16 15 14 13 14 15
0 1 3 3 3 3 2 4 2 1 2 1 3 6 1 2 4 3 4 3 4 4 2 3 3 3 1 1 3 2 1 1 4 2 3 7 10 6 10 7 6 6 4 1 3 3 3 2 4 8 9 9 9 10 11 11 10 9 11 11 11 12 12 11 11 12 14 14 13 12 12 12 11 12 15 14 13 13 13 13 14 14 14 14 13 13 14 14 15 15 16 16 15 14 13 13 14
3 2 3 2 2 3 1 3 4 4 0 3 3 3 2 4 5 4 2 3 5 3 0 1 2 1 1 5 1 1 3 3 1 4 7 8 1 9 10 9 6 4 3 3 3 3 1 2 6 8 9 10 10 11 11 11 10 10 10 11 11 12 12 11 9 14 14 12 12 12 11 14 14 15 14 13 14 13 13 13 13 14 13 13 12 13 13 13 14 15 15 16 16 15 13 12 14
1 1 2 2 3 1 3 1 3 2 1 4 1 4 3 4 4 3 2 2 2 1 1 1 3 3 0 3 0 1 3 1 2 2 4 3 7 8 9 8 6 5 4 3 3 2 1 4 6 8 10 10 11 11 11 11 11 11 11 10 10 11 11 11 9 11 12 12 12 12 12 11 12 13 13 12 12 11 12 12 12 12 13 13 12 12 12 12 13 14 15 15 17 16 14 13 14
4 2 4 1 0 2 4 1 1 1 4 5 0 1 4 6 6 5 4 1 2 3 2 1 2 3 1 1 1 2 2 4 2 3 3 6 10 11 10 8 6 6 3 3 3 2 2 4 5 8 10 11 11 12 11 11 12 11 10 11 11 11 11 11 9 10 12 12 12 11 11 11 12 11 12 11 11 11 12 12 11 12 12 12 12 12 11 11 12 13 14 16 17 17 15 14 13
1 3 4 3 2 4 3 2 2 3 5 5 2 2 6 5 5 6 2 1 1 1 3 0 1 4 4 1 1 0 1 1 3 2 2 8 10 9 9 7 7 6 4 4 3 3 3 4 7 7 6 9 11 11 12 11 12 11 10 11 11 11 10 10 10 10 10 10 12 11 11 11 12 12 11 11 12 12 13 13 13 12 13 12 12 11 11 10 11 11 13 15 16 16 16 14 13
2 1 1 1 1 2 2 0 3 5 1 5 1 2 3 7 5 4 5 2 2 1 1 1 1 3 0 2 2 2 2 1 2 6 8 9 10 9 8 8 9 6 5 3 3 3 3 6 8 6 6 9 10 11 12 11 12 11 11 11 11 12 11 10 10 10 10 11 11 9 11 12 11 11 12 12 12 12 11 12 12 12 12 12 11 12 11 10 10 11 12 14 16 15 15 15 13
5 5 0 4 1 3 2 1 2 3 5 1 5 5 2 3 4 5 4 1 1 0 3 1 0 2 2 1 1 2 2 2 4 9 9 10 9 8 6 8 9 7 5 4 3 2 2 7 8 7 7 8 9 10 11 11 11 11 11 10 10 11 10 10 10 10 9 10 11 10 10 11 10 11 11 11 10 10 10 11 11 11 11 11 12 11 12 10 10 10 12 14 15 15 15 14 14
2 1 2 2 3 0 2 3 1 1 2 2 2 1 4 3 3 1 4 2 2 5 3 1 1 2 2 3 1 2 0 0 7 9 9 9 9 7 7 7 7 10 7 4 3 3 2 6 8 7 7 8 7 9 10 9 10 11 11 10 10 9 8 11 10 9 8 11 10 9 9 10 10 11 10 10 10 9 10 10 11 10 10 10 10 11 10 10 10 10 11 13 14 13 14 14 13
1 5 2 3 3 1 2 4 3 4 1 4 3 3 2 4 5 2 0 2 1 4 1 2 3 3 4 2 2 2 2 4 10 10 10 9 8 8 6 6 7 7 7 6 3 3 3 4 8 9 8 8 7 8 10 10 9 10 11 11 11 10 9 10 10 9 7 8 11 10 9 9 10 10 10 11 11 10 9 9 9 9 10 11 10 11 11 11 11 10 11 12 12 12 12 12 12
1 1 2 3 1 5 3 2 3 6 6 2 1 0 3 6 3 3 2 5 2 0 3 4 3 5 4 1 1 2 2 5 7 9 9 8 8 7 6 6 7 6 6 6 4 3 3 3 4 7 8 8 8 8 9 9 9 10 10 11 11 11 10 9 10 11 10 5 9 11 11 9 10 10 11 11 11 10 9 9 8 9 10 9 9 9 10 10 10 11 11 11 11 12 11 11 11
2 2 5 4 1 1 1 1 1 2 3 3 3 1 4 5 4 4 4 2 2 4 3 6 5 3 2 4 3 2 5 7 3 7 9 8 7 7 6 6 7 7 6 5 6 4 3 3 4 4 6 10 9 9 7 8 8 9 9 9 9 10 9 9 9 9 10 12 12 12 12 12 11 10 9 10 11 11 10 9 9 8 8 9 9 10 10 10 10 9 9 10 11 11 11 11 11
3 5 4 2 1 2 2 0 1 1 2 2 2 1 4 3 3 5 6 5 4 5 2 4 4 5 2 1 2 3 6 6 4 6 6 7 7 7 7 6 7 7 5 5 5 5 4 4 4 4 5 5 5 7 8 9 9 9 9 9 9 8 9 10 10 10 10 10 10 10 9 10 11 12 11 12 12 11 10 10 10 9 8 8 9 9 8 9 9 9 9 10 10 10 10 10 10
0 2 5 5 1 0 2 1 2 3 3 2 2 5 2 2 4 5 8 6 7 3 1 1 3 1 4 7 4 7 8 7 7 6 6 7 8 8 7 7 9 7 5 5 5 5 4 4 4 3 4 4 5 4 4 6 10 9 9 8 9 10 10 9 9 9 9 8 9 10 10 10 10 10 10 9 9 9 8 8 8 7 7 7 7 7 7 7 7 8 9 9 9 10 10 10 10
4 4 3 2 0 2 1 1 0 3 5 4 0 2 5 1 2 5 4 2 1 1 1 4 0 1 1 8 2 8 9 8 8 6 7 9 9 8 8 7 7 7 5 6 5 4 4 4 3 3 3 4 4 4 4 4 7 9 9 9 9 9 9 9 8 8 8 8 8 9 9 7 7 6 8 6 8 7 7 5 5 5 6 7 6 6 6 6 7 7 8 9 10 10 10 9 9
1 2 1 3 1 2 2 2 4 1 4 3 2 3 7 3 0 0 1 2 5 4 1 1 3 1 3 3 2 5 8 9 8 8 8 8 7 6 7 6 6 6 5 4 4 5 5 4 3 3 2 3 4 4 4 4 4 7 7 9 9 9 8 8 8 9 8 7 7 7 7 5 4 4 4 4 6 5 6 6 6 6 6 5 5 5 6 6 6 7 8 9 9 9 8 8 7
1 1 4 0 2 3 4 5 8 1 2 3 4 6 6 3 1 1 1 5 2 0 1 4 1 0 2 2 0 6 8 11 10 10 9 9 7 5 6 7 7 8 7 6 4 4 4 4 4 3 2 3 4 4 3 3 3 4 4 4 5 6 6 6 5 4 5 4 5 5 4 4 3 3 3 4 3 3 4 5 5 5 5 4 4 5 5 5 6 7 8 8 8 8 8 5 5
3 2 1 4 4 5 6 4 5 2 3 4 4 3 5 6 8 3 3 1 1 2 4 1 2 2 3 2 7 10 10 11 10 11 11 12 10 10 8 7 8 8 8 6 5 5 4 4 5 4 4 3 4 4 3 3 3 3 3 4 4 5 4 4 4 4 3 3 3 3 3 2 2 2 2 3 3 4 3 4 4 4 4 5 5 6 7 9 9 9 9 8 8 7 5 3 4
0 1 2 3 6 3 5 3 5 5 2 3 4 3 3 1 5 1 2 3 1 7 6 2 3 5 2 4 7 9 10 10 10 11 12 10 10 10 9 9 9 9 8 7 7 5 6 6 5 5 5 5 4 3 3 3 2 3 3 3 4 3 4 3 3 3 3 3 3 3 2 2 2 2 4 6 4 2 2 3 6 6 6 7 8 4 6 6 8 7 8 7 4 3 3 4 4
2 0 2 2 0 0 2 4 5 4 1 2 4 1 3 2 4 5 4 5 5 6 6 10 12 9 8 8 9 9 11 10 11 11 13 10 9 7 8 8 6 7 6 6 6 8 8 7 6 6 5 4 5 4 4 3 2 2 2 3 3 4 3 3 2 3 3 3 3 3 2 2 2 1 2 2 2 1 1 2 2 2 2 2 5 3 3 3 4 5 5 4 3 3 3 3 3
1 4 1 1 0 1 4 2 4 2 2 3 3 6 8 2 1 4 10 8 9 10 11 10 5 9 12 12 11 10 11 12 12 11 12 13 12 10 7 5 3 4 6 8 9 8 8 7 8 6 7 5 6 5 4 3 3 3 3 3 3 3 3 3 2 2 2 2 2 2 2 2 1 1 1 1 1 1 1 1 1 1 2 1 2 2 2 3 3 3 3 3 3 1 1 1 1
3 4 2 1 3 3 2 1 2 3 2 4 5 5 4 8 2 4 8 12 3 2 2 7 5 10 12 12 13 12 13 14 13 14 13 15 11 9 8 7 8 9 7 7 7 7 8 8 9 7 7 6 7 6 5 4 4 3 3 3 4 4 3 4 3 3 2 2 3 2 3 2 1 1 0 0 0 1 1 1 1 1 0 1 1 1 2 2 2 2 2 2 2 2 3 3 2
3 5 3 8 1 5 1 4 1 4 7 5 3 1 5 5 6 1 5 5 1 4 4 4 6 6 8 11 13 17 17 15 14 13 12 14 12 11 9 9 8 6 6 7 7 7 8 10 8 8 8 7 7 6 6 5 4 4 4 3 3 3 4 4 4 4 3 3 3 3 3 3 3 2 1 1 1 0 1 1 1 0 0 0 0 0 1 1 2 1 2 3 4 4 3 4 4
1 3 6 8 6 4 5 3 3 3 4 0 4 5 6 7 4 3 8 9 3 4 2 4 8 9 8 11 13 11 12 11 11 11 9 9 10 10 8 7 7 7 8 8 7 8 8 8 9 9 8 9 7 7 6 5 5 5 5 4 4 3 3 4 4 3 3 3 3 3 3 3 2 2 3 2 1 2 1 1 1 2 1 1 0 1 1 3 3 2 3 3 3 4 3 4 4
2 3 7 8 9 8 6 5 0 3 1 3 4 4 1 1 0 3 7 5 2 1 3 5 8 10 11 11 12 12 13 13 10 10 11 9 8 10 10 8 7 8 8 8 7 7 7 8 10 10 9 8 7 6 6 5 5 5 6 4 5 3 4 4 3 3 3 3 3 3 3 3 4 4 4 2 3 3 1 1 1 2 2 2 1 3 2 2 3 3 3 3 4 5 4 3 2
2 6 6 9 12 8 2 1 1 0 1 4 7 2 0 2 2 9 1 2 5 4 4 3 8 11 11 9 9 9 12 13 13 8 6 7 9 10 10 9 9 9 7 8 7 6 6 8 9 8 8 7 6 7 6 6 5 7 5 4 4 4 4 3 3 3 3 3 3 3 3 3 4 4 3 3 2 2 1 1 2 1 4 2 1 4 1 2 2 3 3 4 4 4 4 2 2
5 5 10 8 7 4 5 2 1 1 1 2 5 1 1 1 1 9 1 0 3 8 4 5 5 9 10 10 10 8 9 8 7 7 12 12 11 10 10 9 9 8 8 8 7 6 6 8 8 8 7 7 8 7 6 5 6 5 4 4 4 4 3 3 3 3 3 3 3 3 3 3 3 3 3 3 3 2 2 2 2 2 4 2 2 3 3 2 3 3 4 4 3 2 4 4 2
5 5 10 11 7 7 1 4 2 3 1 4 4 1 1 1 8 6 2 0 1 6 7 5 6 6 7 8 8 8 10 8 7 8 12 10 7 7 10 8 9 9 6 8 8 7 8 8 8 8 7 6 8 8 7 6 5 4 5 5 4 4 3 3 4 4 5 3 3 4 4 3 5 4 3 3 3 3 2 2 3 4 4 3 3 3 3 3 2 3 5 1 3 2 3 5 2
6 2 1 9 6 6 5 1 1 4 1 3 1 5 7 10 13 3 1 5 4 4 5 7 6 5 6 6 8 7 5 6 9 11 9 8 7 8 9 8 9 8 7 6 7 8 7 5 6 6 7 7 8 7 6 5 5 5 4 4 4 4 5 5 5 4 4 3 3 3 3 4 4 4 4 3 3 3 3 3 4 4 4 3 4 3 3 2 3 3 4 2 4 3 4 4 3
2 6 1 3 4 5 3 0 1 4 1 2 0 5 7 7 10 4 3 4 10 7 7 8 7 5 5 6 7 8 8 9 11 8 7 6 6 5 8 6 8 8 6 5 9 10 8 7 6 6 8 8 8 7 7 7 5 5 5 5 5 5 5 5 5 5 4 5 4 5 4 4 4 4 3 4 4 4 4 4 3 4 3 3 3 3 3 2 3 4 3 4 4 4 4 4 4
2 4 6 2 4 6 7 1 4 6 0 1 3 4 9 7 9 2 3 5 5 7 7 8 7 7 6 6 7 8 9 7 5 5 6 6 6 7 7 9 7 8 9 9 8 7 9 8 7 8 8 9 8 9 8 7 7 6 6 6 5 5 5 5 5 6 5 4 4 4 4 4 4 5 5 4 4 3 3 4 4 2 2 2 3 2 2 4 3 3 3 3 3 4 3 6 1
2 4 4 5 1 5 5 0 1 2 2 1 5 6 3 6 4 3 1 5 6 6 6 6 7 7 7 7 7 8 6 6 6 8 7 8 7 6 7 8 8 9 8 8 9 8 8 8 8 9 9 10 9 8 7 6 5 6 6 6 7 5 6 6 5 5 5 5 4 4 4 4 4 4 4 5 4 4 4 4 4 3 3 3 4 4 4 4 3 2 3 3 3 4 4 5 7
7 1 4 3 2 2 3 4 1 0 1 4 1 3 6 4 3 3 1 3 5 6 7 6 7 7 8 7 7 8 8 8 11 11 12 10 8 7 7 7 7 8 8 8 9 10 11 9 9 9 8 9 9 9 8 8 7 6 5 6 5 6 6 5 5 5 5 5 4 5 5 4 4 4 4 4 4 5 5 4 2 2 3 4 3 1 5 2 1 1 3 2 0 1 4 5 7
9 6 3 6 3 6 4 2 1 4 1 4 2 5 9 12 8 3 1 3 4 8 7 6 7 8 8 8 8 8 9 9 13 11 10 9 8 7 7 7 7 7 7 8 8 8 7 8 8 9 8 8 8 7 7 7 6 5 4 4 5 5 4 3 3 4 5 4 5 5 6 4 4 3 3 4 4 5 4 3 2 3 3 1 1 3 4 3 1 0 1 4 1 1 4 4 5
3 5 3 2 3 4 3 6 2 4 4 5 5 7 10 15 13 5 1 2 6 6 4 4 6 5 5 7 7 8 9 12 12 8 6 6 8 8 8 7 6 6 7 7 8 7 8 7 7 7 8 9 7 6 6 6 5 6 6 3 3 3 4 4 3 5 4 4 5 5 6 7 5 5 5 5 5 4 5 5 5 1 1 3 3 5 5 4 3 1 2 2 5 4 3 4 4
4 1 3 7 5 7 4 4 2 1 1 7 7 8 9 12 10 6 0 1 2 5 8 9 6 7 7 8 9 11 11 15 11 6 5 6 8 7 7 6 7 6 7 8 8 9 9 10 8 10 8 7 7 7 7 7 6 5 3 6 6 5 6 5 5 4 4 5 5 5 3 4 5 7 6 6 7 7 5 4 4 4 2 2 3 4 3 2 0 1 2 2 3 2 3 1 2
3 6 5 8 3 7 4 2 2 3 4 3 4 6 10 12 11 6 0 3 7 10 11 10 9 8 7 9 12 12 14 8 4 4 6 7 8 7 7 7 6 9 9 8 10 12 10 9 10 10 7 8 9 9 8 8 8 8 7 7 4 5 5 5 4 3 4 5 4 4 4 3 3 2 2 2 3 3 4 4 3 4 3 3 3 3 3 1 1 2 2 3 2 2 1 2 4
3 4 5 6 7 5 9 3 2 3 2 8 1 4 10 12 13 4 4 8 6 8 10 12 11 8 9 9 11 10 7 12 6 9 7 6 8 8 8 9 9 11 10 11 11 9 9 10 10 8 9 9 9 8 8 8 5 5 6 4 7 4 3 6 6 5 5 4 5 5 3 3 3 3 4 4 5 5 4 4 5 3 2 2 2 3 2 3 2 2 2 3 2 1 1 1 2
5 3 5 7 2 1 4 0 0 1 1 1 1 4 10 8 6 7 8 8 7 6 8 9 8 11 12 13 10 9 11 11 10 11 11 9 8 8 8 9 10 9 9 8 9 11 10 10 9 9 9 9 8 9 9 7 7 5 4 4 4 4 4 2 4 4 3 2 2 2 4 4 4 3 4 5 5 4 3 3 2 1 2 3 3 3 2 1 1 1 0 1 1 1 1 0 2
5 7 7 7 6 4 3 4 3 0 1 2 1 5 9 7 9 6 6 6 5 5 4 5 7 9 8 3 4 9 12 11 12 11 9 7 7 10 12 11 9 10 11 11 11 11 9 11 11 10 9 9 8 8 9 6 6 4 4 4 3 4 3 3 3 2 4 3 1 1 3 3 5 5 4 3 2 3 4 3 4 4 3 3 3 2 1 1 2 2 3 2 1 1 1 1 1
6 6 9 9 6 5 4 3 2 1 3 1 2 2 9 4 6 10 8 0 4 5 6 9 11 9 6 8 13 10 10 9 12 13 12 10 11 9 7 7 9 10 11 11 10 11 10 9 8 8 8 8 9 9 9 8 8 9 7 7 6 4 5 4 5 5 3 3 5 2 1 2 3 3 2 3 3 2 2 2 2 2 3 2 2 2 3 3 3 4 3 3 2 1 1 2 1
4 5 9 10 9 5 1 2 0 3 5 2 1 9 8 5 5 6 7 4 10 3 3 10 9 8 7 12 13 11 13 11 8 9 6 6 8 8 9 10 11 11 12 9 9 9 10 9 8 9 9 8 8 7 9 8 8 8 10 10 9 8 7 4 3 4 5 4 2 2 3 0 2 2 1 2 4 5 4 3 4 3 5 4 3 3 3 3 4 3 3 3 2 1 2 2 3
5 1 3 7 7 7 5 3 5 5 1 3 0 2 5 11 11 3 2 2 7 7 9 10 9 9 10 12 12 11 12 11 10 12 11 10 9 11 13 14 12 13 11 8 9 8 10 10 9 10 8 8 8 8 9 10 10 9 9 8 8 8 8 7 7 5 3 3 3 3 2 3 3 3 5 3 5 5 5 4 4 4 4 3 3 3 3 3 4 3 4 3 2 2 2 3 2
4 1 1 1 5 4 2 3 4 2 2 8 3 1 2 8 7 2 1 4 6 9 10 11 11 12 12 14 14 13 13 11 10 11 12 12 12 12 11 11 11 8 7 9 10 10 9 8 8 7 8 8 8 10 10 10 10 10 10 8 8 6 7 5 3 3 4 4 4 3 4 5 5 4 4 4 2 4 4 5 5 5 4 2 3 3 3 3 3 4 3 3 2 3 2 2 3
3 2 7 6 6 4 1 2 2 1 1 11 8 5 6 9 4 4 1 2 7 6 8 12 13 14 14 14 13 12 7 6 7 11 9 8 9 8 7 4 3 8 6 5 5 5 6 6 8 9 9 8 8 9 10 11 10 9 9 8 9 7 5 4 5 5 5 5 6 5 5 5 5 4 4 3 3 3 4 4 5 4 3 3 3 3 3 4 4 5 4 4 3 4 3 5 4
4 4 2 5 6 2 2 4 1 1 6 14 6 8 7 9 7 9 8 8 7 8 6 6 6 7 9 9 10 10 8 8 8 9 8 7 4 5 4 7 6 3 4 5 5 6 6 8 8 10 10 8 8 10 10 11 10 9 10 9 10 9 8 8 6 5 5 5 7 6 5 5 3 4 4 3 4 3 4 5 6 5 3 3 4 4 4 5 4 4 4 5 6 5 4 5 5
2 1 2 1 3 2 2 2 1 4 11 2 4 3 5 12 4 4 7 3 7 10 10 11 11 11 9 7 7 8 7 8 8 7 10 8 5 4 3 6 6 5 4 5 5 5 6 7 8 9 7 8 8 8 9 10 9 10 8 9 10 10 10 9 9 9 8 8 8 8 4 4 4 3 2 5 4 2 4 5 5 4 4 4 4 3 4 4 4 4 5 5 4 5 5 5 4
3 2 2 6 3 3 3 1 3 9 10 1 3 2 1 16 5 5 4 9 8 7 9 11 10 8 7 6 7 6 5 5 7 9 7 6 8 8 8 7 5 6 8 7 7 6 6 6 8 9 9 8 9 8 10 9 9 9 9 9 9 9 10 10 10 10 9 9 7 7 8 6 5 4 4 5 3 2 4 5 4 4 4 4 4 5 4 5 6 5 5 5 5 5 4 4 5
6 7 6 7 5 4 7 4 2 5 5 3 0 1 6 2 3 12 12 10 12 8 8 9 7 9 8 7 5 5 5 7 7 7 7 8 8 7 7 7 7 6 5 5 5 5 5 6 7 9 9 8 7 8 9 10 10 10 9 10 9 9 9 9 8 10 9 8 10 9 8 8 8 7 6 5 4 4 5 4 4 5 4 4 5 5 5 5 5 6 5 6 5 4 5 6 6
10 5 6 4 3 4 6 5 11 9 7 1 4 3 8 3 7 1 9 10 3 4 5 5 7 8 8 7 7 8 7 5 5 5 7 7 7 6 7 6 6 6 6 5 5 4 4 5 6 8 7 7 8 9 9 10 9 10 9 9 9 9 9 8 8 8 10 8 6 10 8 6 6 5 6 6 5 6 5 4 4 5 4 5 5 6 6 6 6 6 6 6 5 5 6 5 5
4 3 3 5 11 3 3 4 2 1 1 0 1 7 4 5 3 6 4 6 7 6 7 4 10 7 5 7 8 8 6 5 4 5 6 5 4 4 4 4 5 5 5 4 5 5 5 5 6 7 8 8 8 9 9 10 10 9 9 10 10 9 8 8 6 6 7 10 10 8 7 6 6 7 5 7 4 5 5 6 5 5 4 5 5 5 5 5 5 7 6 6 6 4 5 7 4
9 8 9 10 2 2 2 2 1 1 4 8 3 6 7 7 9 6 4 2 6 5 6 5 10 6 4 8 9 6 5 4 4 5 4 4 3 3 3 4 4 3 4 5 5 5 6 6 6 6 6 6 8 9 10 9 9 9 10 9 9 9 9 10 9 9 8 5 7 7 7 6 6 7 7 5 6 4 5 6 6 5 5 5 6 5 6 6 6 6 6 6 6 4 7 6 5
7 10 9 3 2 3 3 5 2 1 4 7 2 9 5 1 10 3 3 2 8 5 8 9 7 4 6 11 9 5 5 5 4 4 4 3 3 4 3 3 4 5 6 5 5 4 4 5 6 7 7 8 7 8 8 8 9 9 8 9 8 10 10 9 9 10 8 8 7 7 7 7 6 7 8 6 6 6 6 5 7 6 5 5 5 5 6 6 7 7 6 6 4 4 6 4 4
8 8 3 8 6 7 5 1 6 5 6 5 2 1 4 6 8 3 4 6 8 9 9 6 9 8 11 11 6 4 4 4 5 6 5 4 4 4 5 5 4 4 5 5 4 5 4 4 5 6 8 7 8 7 6 6 7 7 8 9 10 8 7 8 7 9 9 9 9 8 7 8 8 7 7 7 7 6 6 6 6 6 5 5 5 5 5 6 6 7 5 5 3 4 6 6 4
3 3 1 2 1 7 6 7 1 3 6 1 7 1 6 6 6 3 5 6 9 9 6 8 12 9 6 7 6 7 7 7 6 5 5 4 4 4 5 5 6 6 4 4 5 5 5 5 5 5 5 5 5 7 7 8 7 7 7 6 6 7 8 9 9 10 9 9 9 9 9 9 8 7 6 7 7 7 7 7 5 6 6 5 6 4 5 6 6 6 5 5 4 5 7 6 4
5 5 5 3 4 0 3 0 7 6 4 4 3 4 5 7 8 8 9 9 9 10 11 6 6 7 6 6 6 5 5 5 5 5 5 4 4 4 3 2 2 1 2 4 5 5 5 3 5 5 7 7 7 6 7 7 7 7 9 9 9 8 8 8 8 7 9 9 8 8 8 8 7 6 7 7 8 8 7 7 6 5 6 6 6 5 4 5 6 6 5 5 4 6 6 4 4
8 11 9 7 7 8 7 12 3 1 3 6 3 9 5 9 4 11 11 11 8 1 3 7 5 6 7 6 6 6 6 5 5 4 4 4 4 3 1 1 1 2 3 4 4 4 5 4 4 5 6 6 7 6 6 7 6 8 8 9 9 7 8 8 9 8 9 8 8 8 8 8 8 6 7 8 8 7 6 6 7 6 5 6 5 6 4 5 7 7 6 4 5 5 5 4 4
Wind_Direction
340 18 218 143 67 99 30 0 131 317 56 268 329 34 180 16 204 76 182 346 190 240 238 63 58 92 167 209 172 134 38 125 195 136 216 222 169 110 128 134 141 120 125 31 21 43 64 81 94 98 109 116 114 117 117 114 109 110 112 111 108 101 98 100 101 96 95 93 95 95 89 84 88 88 84 79 78 78 79 79 78 80 81 82 87 88 87 86 79 76 74 72 72 74 79 81 79
356 97 61 18 65 65 258 126 97 349 42 31 243 82 244 299 81 208 182 190 212 110 122 103 88 92 68 86 119 134 36 46 170 136 132 157 112 122 147 144 138 134 124 59 48 62 71 77 100 121 121 120 121 124 119 116 118 117 115 112 107 102 97 97 101 95 95 96 87 86 93 95 93 91 91 88 81 75 76 78 79 82 81 83 87 91 88 84 80 76 74 74 72 74 78 79 83
209 156 56 29 39 77 89 36 306 67 64 330 274 207 336 136 191 209 214 203 158 149 131 85 109 79 17 336 34 45 217 79 109 164 102 126 139 150 147 132 129 129 123 106 76 73 71 49 92 123 117 120 126 126 123 120 116 121 116 113 109 105 100 94 91 97 95 92 88 84 87 86 89 86 84 87 93 94 93 88 87 82 80 84 87 93 95 91 83 78 76 74 73 74 80 87 88
100 29 142 78 262 34 56 26 94 120 162 215 314 276 183 179 214 200 227 211 155 110 10 0 57 269 94 51 158 87 78 128 289 129 131 162 122 140 142 137 122 119 106 100 95 84 76 56 132 125 124 125 126 125 124 123 123 116 107 106 107 106 102 96 99 103 104 97 94 100 99 92 88 86 88 86 85 87 82 80 83 85 86 86 90 96 97 93 86 81 75 72 72 74 76 87 93
74 359 83 107 110 10 101 116 139 102 319 201 231 273 258 208 190 187 176 170 176 93 353 118 73 342 260 129 68 131 214 89 141 80 111 109 122 140 136 127 131 118 115 110 103 104 103 106 129 132 133 132 129 125 131 127 124 119 117 115 109 105 102 101 103 110 99 101 105 104 99 95 93 90 92 96 99 97 91 84 84 91 92 92 94 96 98 97 88 81 77 73 69 70 73 79 91
77 58 2 103 333 172 64 65 11 205 211 152 184 248 222 210 167 184 152 224 255 237 211 141 167 192 23 331 175 99 188 141 158 113 137 140 135 145 135 130 121 117 121 110 112 116 123 124 115 119 133 135 134 135 132 133 125 117 112 107 103 102 104 104 99 93 98 107 106 104 101 101 101 98 97 90 87 94 102 98 94 83 84 84 84 89 95 97 94 82 77 74 69 64 69 74 79
235 50 357 25 26 52 158 141 232 204 278 159 216 233 199 195 192 137 146 98 241 96 165 171 130 101 77 306 30 154 192 176 134 186 130 137 137 139 135 125 121 123 127 128 128 127 151 146 130 128 129 128 133 137 137 129 120 116 112 108 108 106 107 111 111 107 111 109 104 108 106 102 97 96 93 94 89 85 85 86 84 83 81 83 85 89 93 94 95 89 79 75 72 69 69 74 79
43 136 323 111 292 42 66 115 250 157 269 166 220 249 216 174 152 148 178 126 216 173 55 82 2 106 229 25 164 251 350 277 172 122 123 136 141 135 131 130 128 133 131 136 139 143 143 140 134 130 130 131 138 139 133 121 117 115 113 114 113 113 111 115 122 120 108 105 105 98 99 94 94 96 91 83 79 76 78 80 79 78 80 76 81 79 84 95 96 84 77 75 71 70 69 71 79
5 84 323 71 59 36 52 312 268 241 285 299 282 221 204 158 152 135 162 240 60 130 167 239 283 85 227 54 132 275 328 339 122 126 134 138 143 141 135 139 141 136 133 133 128 113 111 121 124 128 122 124 131 134 129 120 119 117 115 114 116 117 119 118 109 100 105 104 98 105 104 102 102 99 96 91 84 81 79 79 82 79 81 80 78 77 77 79 87 87 74 71 71 69 69 66 67
51 68 279 119 136 267 4 298 57 208 234 242 236 219 150 169 144 112 152 107 183 132 203 282 174 109 139 126 338 15 4 168 127 125 139 144 144 138 139 142 142 136 132 123 108 104 102 108 102 103 120 121 125 130 127 123 125 123 119 110 107 105 107 112 105 97 100 108 105 93 96 107 109 104 100 98 93 87 82 78 74 77 75 79 76 76 77 76 77 78 68 69 66 67 69 68 67
314 16 134 81 30 93 203 261 267 316 288 309 285 236 186 133 126 117 163 151 91 149 245 238 38 119 79 215 218 256 278 170 145 149 149 148 143 139 134 134 133 132 127 120 105 82 78 91 92 96 106 113 117 119 123 126 118 114 110 110 108 101 92 91 95 99 109 105 112 109 96 98 107 103 94 95 94 89 83 77 75 80 79 74 73 73 75 76 73 68 65 65 64 66 67 68 67
343 25 7 97 157 157 234 177 279 281 297 330 210 299 183 137 113 126 148 127 200 159 179 172 198 144 63 30 312 337 154 184 165 148 148 146 140 135 130 129 127 123 118 117 101 79 70 73 80 88 94 108 106 111 118 121 113 106 107 109 109 105 100 100 101 76 59 87 96 83 82 85 93 89 97 99 95 91 89 87 86 78 72 70 69 68 68 69 69 64 62 63 62 62 62 64 65
106 87 82 91 203 161 144 116 271 319 340 274 182 192 132 120 183 187 172 105 125 132 290 215 135 82 118 166 262 306 185 196 175 154 147 146 135 128 125 127 123 121 114 108 101 86 71 70 69 73 90 95 98 96 98 105 110 106 104 102 97 100 104 101 99 79 77 75 85 85 74 73 80 94 97 96 91 86 85 82 78 73 71 70 68 70 67 68 67 67 64 59 57 57 57 55 55
119 179 129 172 40 123 144 218 324 191 268 247 264 150 175 137 237 168 128 138 200 170 252 178 145 131 96 9 274 213 199 179 164 158 146 133 130 127 131 129 124 129 117 110 104 91 68 60 68 75 85 85 88 88 91 100 103 100 98 97 97 92 93 92 87 80 81 78 78 73 68 74 78 80 83 87 86 81 74 71 66 62 66 64 66 63 65 63 58 58 54 52 51 50 49 45 42
286 135 83 112 70 57 235 102 228 153 251 198 200 138 181 264 118 149 164 158 231 213 335 98 169 121 220 153 268 211 183 180 156 155 141 128 128 130 130 132 133 129 125 110 104 98 85 62 59 65 80 88 87 89 87 101 108 106 101 94 96 98 93 90 86 84 83 79 85 82 77 73 73 69 78 81 80 77 72 67 71 73 77 73 69 64 62 63 61 54 48 44 43 43 38 35 30
135 89 79 111 124 146 257 158 67 96 260 180 195 191 147 336 157 134 249 152 203 301 129 198 310 180 173 160 221 193 165 155 152 147 139 130 131 131 132 136 132 132 131 123 132 101 106 81 64 67 81 91 96 91 88 91 112 113 106 99 103 106 104 100 93 90 89 89 89 92 90 81 76 73 74 71 76 76 76 78 80 80 83 80 74 75 68 65 58 51 44 39 40 40 34 31 28
96 79 54 39 202 164 248 160 146 226 245 249 286 161 166 209 239 1 121 78 121 183 232 265 200 48 164 209 257 168 143 137 138 144 140 138 142 144 140 134 138 133 139 127 139 136 121 120 88 91 87 99 103 103 93 90 95 113 111 111 112 113 109 102 98 94 91 89 91 89 89 87 82 81 74 76 69 60 64 70 72 76 77 77 81 76 70 61 53 47 41 39 41 33 27 30 31
45 53 107 97 204 137 208 177 190 219 132 224 204 208 155 204 169 192 89 33 68 63 257 306 305 314 221 268 128 128 133 142 153 151 156 150 153 150 157 160 154 155 153 150 151 141 133 135 130 128 108 114 116 119 119 117 111 103 118 120 118 116 111 106 103 103 99 91 88 83 85 84 72 70 77 84 66 59 50 55 75 77 78 64 63 75 71 57 45 42 37 40 35 29 26 18 6
77 126 99 223 174 240 158 201 199 120 260 193 205 196 183 209 144 207 131 277 115 141 259 16 295 322 45 80 121 126 142 152 161 161 162 166 166 171 168 165 167 154 156 157 161 160 160 148 153 157 161 141 131 126 125 126 133 128 132 126 124 125 119 108 103 100 106 105 93 91 81 63 65 51 42 52 64 67 59 29 32 62 64 49 44 44 42 33 36 31 29 27 30 29 27 21 1
179 130 278 258 214 257 216 191 202 216 118 136 183 221 159 226 154 125 196 174 114 189 197 274 251 224 168 136 139 143 150 164 167 165 169 177 173 173 175 177 175 170 164 165 164 160 163 173 167 169 170 162 152 146 141 140 146 148 148 135 129 128 119 116 113 114 120 121 116 105 89 82 74 61 44 54 59 39 47 36 29 38 37 40 23 29 23 28 22 28 26 26 26 21 17 15 357
313 72 181 245 227 9 286 189 251 228 166 162 167 64 181 235 183 157 169 120 251 260 237 184 201 195 167 162 155 155 160 170 172 175 177 185 183 182 181 182 181 174 162 150 157 171 175 174 175 179 176 170 166 157 155 165 158 155 162 145 139 138 130 121 121 134 137 131 124 111 105 90 75 62 52 44 47 39 36 29 22 19 17 35 17 19 8 7 19 8 1 22 24 7 14 355 7
250 218 215 220 190 234 265 223 235 210 275 127 131 141 215 99 46 175 155 180 213 210 224 219 204 162 156 165 167 160 170 176 180 180 185 186 188 186 176 162 148 156 151 165 173 170 177 178 180 180 182 180 177 166 178 165 165 183 174 169 147 144 150 150 145 142 146 145 128 115 99 95 89 92 65 54 35 49 23 38 35 18 36 28 25 14 359 6 7 12 12 357 354 29 3 296 313
354 312 312 252 221 274 289 0 255 166 130 149 168 222 90 160 203 180 181 202 219 244 256 206 181 178 171 157 155 166 175 183 185 187 184 187 191 190 184 177 174 178 176 182 173 172 173 180 184 176 187 184 183 178 179 175 194 193 192 177 163 180 168 162 176 172 172 157 147 144 141 138 126 112 86 29 43 40 323 343 25 42 46 38 29 356 334 343 0 346 340 319 308 338 328 314 313
158 252 317 308 194 237 282 304 75 195 144 205 203 115 159 166 200 166 199 234 244 303 260 204 151 131 141 155 174 174 179 184 190 189 189 189 189 194 188 186 186 179 181 180 177 173 174 185 180 178 188 184 185 184 182 188 192 191 199 186 209 183 167 185 185 185 170 170 172 176 166 160 162 167 195 212 223 83 257 300 302 10 166 110 128 165 281 290 299 301 310 319 339 333 335 319 326
342 282 356 309 329 277 304 277 296 205 221 193 111 155 221 188 192 100 236 226 277 340 85 133 135 139 159 169 176 178 179 185 190 190 188 195 195 192 196 194 190 180 190 187 180 177 182 176 173 183 186 188 186 183 187 189 190 194 200 201 205 187 191 195 188 168 175 180 179 175 163 171 170 178 204 214 161 215 241 278 297 266 287 248 169 251 212 286 308 315 322 311 316 307 312 305 322
69 270 316 307 305 300 294 303 241 213 205 145 132 215 322 204 339 245 232 230 198 98 84 130 139 149 168 180 182 177 182 189 190 189 192 189 192 193 199 196 191 200 198 189 183 189 179 175 180 187 183 185 182 182 192 189 191 196 200 195 200 182 212 196 172 185 186 171 189 183 186 180 185 193 206 181 179 235 235 268 298 293 290 265 217 273 227 217 269 304 300 302 299 293 302 293 319
353 296 294 296 288 303 321 256 307 254 260 190 173 194 230 332 97 264 331 208 127 92 125 145 154 166 175 176 186 191 184 189 192 185 181 191 195 198 198 196 196 203 194 198 195 193 177 177 189 186 181 176 173 189 184 189 187 202 198 193 187 203 208 179 186 195 186 190 192 178 187 188 181 183 181 181 192 221 241 241 262 292 287 283 259 275 300 250 256 260 273 278 279 287 289 303 306
309 315 306 303 307 270 249 310 288 99 294 166 140 148 256 305 55 233 236 283 173 135 154 170 183 174 179 181 185 191 195 194 187 185 198 195 198 196 197 196 198 198 197 203 200 190 179 190 189 186 181 173 177 188 182 187 192 196 192 184 197 202 189 192 196 192 201 204 181 176 179 184 173 184 175 175 188 198 231 239 267 271 268 297 249 262 279 255 247 257 260 253 267 292 301 304 265
312 344 329 306 328 321 260 217 228 144 249 156 161 84 285 194 226 230 247 130 155 139 165 187 194 192 184 185 186 192 199 188 188 204 211 205 196 198 205 200 201 199 205 204 201 191 196 192 186 186 178 173 185 189 189 194 187 188 185 192 195 187 188 189 200 202 207 200 184 178 175 174 181 181 191 184 184 195 205 215 238 237 247 248 234 229 239 247 254 277 273 281 298 286 283 281 281
322 4 301 318 341 310 291 180 91 146 251 147 142 216 247 231 237 252 186 136 112 114 172 196 207 196 193 189 193 202 198 193 206 211 209 207 202 196 203 201 201 203 200 201 198 205 201 195 187 174 178 182 191 191 188 188 193 191 188 186 183 182 189 192 211 211 207 193 186 188 177 178 182 185 170 193 184 196 207 215 225 249 235 226 224 208 220 214 248 269 284 324 267 245 261 269 301
29 288 182 251 332 268 293 205 190 147 199 142 105 219 263 260 257 235 181 163 154 171 193 200 204 204 198 200 199 203 213 211 212 209 214 212 205 200 204 198 198 202 197 197 196 200 196 194 182 184 180 191 188 192 190 197 190 187 187 189 189 189 189 198 207 205 202 205 182 197 188 182 184 178 174 171 189 187 196 215 226 237 216 208 210 208 220 210 209 240 246 263 276 275 281 284 272
315 344 276 334 189 278 292 221 171 174 253 89 135 260 245 262 269 261 208 176 168 187 193 199 202 203 204 203 209 212 217 218 228 226 218 215 202 203 198 206 195 198 199 199 199 194 199 198 187 190 182 191 192 195 195 194 191 191 191 193 192 190 190 201 204 203 200 186 186 201 196 187 183 181 173 170 163 180 177 192 214 182 218 205 219 205 194 230 220 241 252 225 276 291 296 294 324
345 203 288 283 307 257 333 304 3 10 119 358 171 223 324 291 280 330 225 183 184 186 206 203 207 211 207 209 212 217 223 235 235 229 225 214 214 201 200 202 198 202 201 195 196 195 202 200 194 193 189 193 194 195 193 192 188 192 194 194 199 190 195 205 206 197 183 180 187 202 189 183 192 184 183 181 169 177 185 196 220 196 174 197 193 196 213 232 216 234 264 219 197 265 303 295 300
245 79 219 217 211 286 231 300 284 124 98 199 247 224 237 241 292 312 2 197 176 200 207 212 213 211 212 213 216 219 220 225 228 223 224 214 215 207 201 199 200 201 205 201 199 194 198 196 197 199 195 194 193 192 191 190 193 192 193 196 191 195 205 204 200 180 188 186 178 192 176 173 184 189 186 188 189 194 186 185 219 211 185 209 224 213 244 260 221 184 270 292 180 237 286 290 291
199 185 272 291 239 217 248 244 238 140 22 171 210 242 259 270 273 296 274 154 201 219 208 210 216 216 215 215 216 221 224 226 235 226 220 216 215 212 204 199 198 200 204 203 202 203 200 198 196 201 197 193 194 190 191 190 186 189 188 184 189 203 203 203 177 191 198 180 183 188 163 158 176 169 178 187 200 206 212 220 213 233 211 202 199 258 278 301 339 0 260 296 354 224 250 271 278
150 165 203 250 232 244 206 238 273 180 167 218 193 215 240 253 260 259 54 169 192 243 281 257 230 237 241 230 230 226 227 235 239 231 219 215 215 210 208 198 198 200 202 200 203 200 202 201 199 201 202 193 189 187 178 182 177 183 186 182 199 203 201 191 193 203 195 189 192 193 176 158 171 187 187 190 206 225 242 239 237 263 149 161 214 262 269 261 256 268 267 243 291 297 224 247 268
320 268 283 269 276 283 280 275 264 289 146 231 217 227 236 253 255 260 287 123 234 239 241 238 230 220 221 227 227 228 228 231 233 222 220 220 217 211 208 197 202 200 204 200 202 205 201 199 188 205 200 189 183 184 183 181 184 189 199 198 196 187 190 188 194 198 202 201 192 188 195 190 188 191 195 194 201 218 231 237 232 244 170 187 216 238 263 342 79 218 248 194 245 282 308 287 282
325 294 282 288 234 276 257 279 358 317 173 277 231 244 253 257 265 259 0 133 231 220 230 237 232 221 221 222 230 227 230 253 280 251 222 218 217 210 203 202 193 201 213 199 205 207 204 199 198 200 187 193 195 190 184 187 190 189 181 188 179 177 180 182 193 197 202 198 192 191 186 183 155 164 181 234 270 251 239 237 233 246 202 211 222 249 276 260 213 207 213 280 196 234 273 306 301
269 256 290 287 273 242 270 240 338 332 122 260 43 246 255 254 256 235 184 206 234 218 211 222 214 221 226 225 231 238 246 246 234 239 231 219 219 214 202 205 206 209 207 204 211 207 206 204 205 195 193 192 197 191 185 193 188 185 179 175 176 188 228 181 179 187 188 195 195 182 181 182 177 189 201 203 211 219 221 210 229 233 212 201 242 270 259 268 228 225 206 215 283 187 226 319 327
222 272 265 247 280 316 310 261 236 0 142 307 286 251 273 269 267 249 229 204 235 226 216 231 202 217 222 223 218 226 236 243 236 231 228 218 213 212 204 205 207 204 207 210 210 210 209 210 205 196 196 194 193 194 192 191 182 177 165 154 173 146 178 175 153 131 145 153 220 229 179 192 212 216 206 204 208 208 211 222 251 223 202 191 207 244 249 269 243 171 130 226 174 329 354 311 34
209 221 245 253 238 247 201 286 340 284 7 88 41 325 286 247 265 280 261 239 268 273 242 256 249 235 236 269 253 221 232 231 237 240 237 221 216 216 207 207 196 200 207 208 206 208 208 210 206 197 195 195 195 188 188 167 138 123 105 70 96 93 65 105 124 149 153 161 171 169 234 223 233 217 213 217 193 204 190 194 206 212 196 187 178 189 185 150 113 98 113 94 139 176 340 344 356
226 229 217 234 246 253 267 313 285 339 275 261 165 311 261 299 259 238 253 46 238 246 220 238 236 233 224 235 237 236 235 228 227 233 229 219 216 219 217 209 201 207 210 208 205 208 206 210 202 197 195 194 194 189 178 163 169 163 156 158 161 171 181 165 181 174 160 175 196 184 227 204 216 215 196 208 197 168 149 143 133 115 96 100 125 145 124 105 90 80 63 103 88 176 152 76 8
191 258 188 224 244 242 243 308 16 256 228 283 86 209 274 316 277 238 241 235 243 271 226 244 245 242 219 230 233 229 228 234 235 248 245 221 224 219 220 211 208 208 212 200 200 205 207 205 198 195 194 194 189 179 171 169 172 177 181 186 185 183 184 202 171 167 174 179 149 188 206 227 210 157 97 136 113 112 106 103 110 105 99 101 92 96 98 99 98 95 83 84 93 89 116 108 91
229 247 146 211 219 222 224 186 200 246 288 301 17 161 220 271 251 240 340 294 265 271 260 256 246 241 233 233 232 229 227 224 219 227 227 223 216 208 211 210 206 210 204 189 197 200 199 201 194 195 195 191 184 172 173 179 180 182 185 190 187 187 190 187 181 178 160 137 157 178 127 78 57 101 120 113 123 115 118 105 100 95 92 78 100 105 115 117 98 69 63 74 79 94 121 114 111
185 2 289 159 210 245 248 187 211 240 340 275 220 251 220 249 273 326 54 272 266 250 246 248 242 237 236 238 235 231 226 219 211 220 223 216 215 214 218 216 216 211 197 192 198 196 194 196 193 189 193 188 185 176 177 185 185 182 185 183 186 197 186 170 136 118 141 147 144 138 124 109 85 67 75 93 75 104 115 120 100 93 93 96 110 116 104 99 96 95 81 70 86 60 54 90 93
257 118 100 81 65 58 112 182 205 306 236 247 222 183 219 269 281 269 350 216 245 254 249 242 235 230 229 235 242 240 235 229 223 225 228 225 224 226 226 242 212 212 204 197 194 182 188 184 188 187 197 191 184 181 182 186 186 179 184 185 186 179 153 126 152 155 154 164 148 150 136 129 130 112 92 100 111 88 95 105 104 101 113 105 94 106 116 95 89 86 85 90 83 76 50 67 80
100 121 87 33 41 48 27 68 104 327 250 246 214 203 192 269 223 201 191 217 196 239 268 277 266 260 253 244 242 244 231 226 229 230 233 232 234 229 212 210 217 203 191 181 189 189 186 187 187 192 197 188 182 183 182 187 186 185 188 186 186 174 169 156 152 154 148 152 151 147 148 139 133 125 115 105 79 114 111 79 87 92 98 108 106 108 90 105 103 99 89 75 64 74 72 81 74
112 128 105 107 340 23 31 333 94 202 253 263 346 221 173 228 293 262 234 250 210 206 220 245 256 245 244 245 246 247 235 225 224 221 231 224 223 220 191 213 203 198 176 193 196 192 191 192 186 192 193 188 184 184 185 186 184 188 189 184 185 178 169 170 169 165 165 164 163 149 143 129 115 110 162 91 62 45 91 92 88 95 84 89 89 97 91 100 93 78 69 74 77 77 76 78 75
98 101 167 150 211 146 269 89 224 213 230 321 354 153 328 244 232 263 285 257 263 231 220 226 242 263 260 262 256 255 247 233 220 224 226 210 203 194 195 202 183 183 190 190 194 189 191 192 191 190 197 187 186 180 184 182 183 187 186 185 186 174 176 175 172 166 169 162 160 149 156 158 149 127 99 108 101 85 105 101 98 98 93 82 99 91 85 87 91 88 86 76 71 65 61 72 76
168 185 179 156 166 176 213 213 343 328 295 262 131 112 265 302 289 234 248 258 232 233 230 243 245 248 259 268 282 281 256 234 231 219 215 212 200 199 194 186 186 177 176 177 164 160 180 189 193 195 198 184 181 180 182 181 188 187 186 184 181 171 179 178 174 167 170 168 159 165 173 162 166 161 149 140 148 119 82 98 107 94 91 94 90 90 91 90 91 91 87 81 71 65 68 67 70
193 170 175 223 205 165 205 185 206 217 210 279 276 98 235 133 245 248 234 247 295 254 249 255 258 256 265 280 286 278 267 248 234 229 217 209 202 191 185 180 173 163 160 167 179 179 166 182 185 193 185 181 185 186 181 185 187 187 187 186 179 177 177 177 176 172 163 161 172 160 163 159 150 146 140 129 122 103 105 101 96 97 93 92 93 92 89 87 89 87 79 83 74 65 68 72 65
190 160 98 210 233 146 193 211 157 207 217 299 239 206 188 180 255 283 245 270 278 255 265 259 264 256 264 280 266 258 250 244 221 224 226 229 208 181 162 156 157 165 169 169 178 180 186 192 186 192 191 179 189 186 188 186 188 185 185 183 182 176 173 167 157 160 164 164 161 158 152 148 138 131 115 115 107 117 119 107 93 91 93 89 86 93 96 95 94 93 85 83 77 55 76 66 63
177 152 213 213 70 98 56 38 34 94 44 258 150 308 283 302 310 278 343 328 274 265 260 251 256 257 274 261 259 251 246 239 226 225 225 219 210 203 181 164 164 171 175 185 185 185 188 182 184 187 185 183 194 192 188 187 183 180 188 183 171 166 162 164 163 157 147 130 130 132 135 133 136 124 119 117 122 107 108 109 103 95 88 92 95 97 100 100 97 93 91 87 85 70 77 75 66
101 195 214 77 125 109 186 243 354 68 204 258 87 214 276 8 259 323 319 309 271 264 251 245 259 269 257 247 245 242 240 232 227 224 228 221 207 193 193 194 184 183 180 178 182 187 202 197 191 186 181 188 196 192 189 183 178 181 176 173 170 167 165 163 156 146 139 133 125 120 124 131 130 123 121 131 121 115 105 103 105 100 100 100 107 103 102 104 101 88 90 85 107 112 93 79 62
161 195 145 153 205 228 231 177 230 201 225 257 303 269 280 197 232 352 227 221 244 251 246 250 265 246 238 246 253 258 253 245 231 225 219 218 207 197 190 191 190 188 180 170 168 174 204 203 196 191 191 193 186 184 179 177 175 170 169 167 161 154 147 140 137 137 139 138 140 141 136 127 116 119 125 128 122 116 113 107 112 115 115 111 105 106 107 98 98 98 90 94 91 93 79 70 49
47 94 177 208 99 241 195 201 189 125 263 304 282 62 237 204 219 198 239 236 241 253 274 239 237 246 252 258 243 234 230 222 218 216 215 213 215 205 194 185 180 182 170 167 168 174 198 195 184 188 178 170 169 171 167 165 162 150 142 135 137 142 142 141 144 144 139 138 144 138 131 125 132 129 128 127 128 128 127 125 127 127 118 112 105 99 102 104 92 90 97 82 66 75 70 65 56
167 179 204 161 211 297 148 251 192 210 200 196 223 294 273 251 214 196 227 234 229 225 247 261 262 258 248 256 257 246 237 230 224 210 202 206 214 218 219 214 207 194 167 166 168 181 182 183 183 177 169 167 171 167 159 153 143 143 143 145 139 134 131 130 130 132 127 130 131 128 124 128 121 132 135 135 132 132 132 132 132 124 119 117 109 102 95 101 93 92 78 87 76 74 79 63 62
194 191 201 194 171 210 199 232 51 94 182 234 150 254 270 266 201 200 216 233 237 287 228 262 271 271 260 251 243 230 237 234 220 211 202 203 208 208 180 82 85 136 174 184 181 179 178 185 180 170 165 170 164 161 155 142 141 144 144 137 133 129 133 133 129 126 123 126 128 126 130 128 132 142 145 137 129 129 130 132 121 117 110 105 101 98 101 98 98 93 80 70 75 78 76 67 58